Dewpoint
65 63 65 65 66 65 65 64 64 64 65 65 63 62 61 63 62 62 63 63 64 63 63 64 64 63 64 64 63 63 64 64 65 65 64 64 65 65 65 65 64 64 65 65 64 63 62 62 61 61 62 61 60 60 60 59 59 58 58 58 58 59 59 59 57 56 56 58 57 57 58 60 60 62 62 62 63 63 65 67 71 71 71 72 71
66 64 65 65 64 64 64 63 64 64 64 64 64 63 62 62 63 64 63 63 64 62 62 63 64 64 63 63 64 65 64 64 64 64 64 64 64 65 64 64 63 63 63 63 64 63 62 61 61 61 61 60 60 59 59 58 58 57 57 58 57 58 59 58 58 57 55 56 56 57 57 59 59 61 62 63 63 64 64 65 68 71 72 72 71
65 65 64 65 64 63 64 63 63 64 63 64 62 63 62 62 63 63 62 62 64 63 63 63 64 64 63 63 63 63 64 63 65 65 64 64 63 64 64 64 64 63 63 63 63 62 61 62 60 60 61 59 59 59 59 58 58 57 57 58 58 58 59 59 58 56 56 55 56 56 56 57 58 59 61 62 63 64 63 64 66 70 71 72 71
65 65 64 65 64 64 64 64 63 63 63 63 63 62 62 61 62 62 62 62 62 65 64 64 64 64 63 64 63 63 64 64 64 65 64 64 63 63 63 63 63 63 63 63 62 62 61 60 60 60 60 59 58 58 58 58 58 58 57 58 58 58 58 58 58 57 57 55 55 56 56 57 57 59 61 63 63 63 63 63 64 66 69 71 71
64 64 64 64 64 64 64 64 64 63 63 63 62 61 60 58 63 62 62 61 61 63 64 65 64 64 63 62 63 63 63 64 64 65 65 65 64 64 64 63 63 63 63 63 64 62 61 60 59 59 60 58 59 58 58 57 58 58 58 58 58 58 58 58 58 58 57 56 55 56 57 57 58 59 61 62 63 64 64 64 63 64 66 69 70
63 62 62 63 63 63 63 63 63 62 62 61 61 60 59 61 59 61 62 62 63 63 61 62 63 62 62 63 63 63 63 63 64 65 65 65 65 65 64 64 64 64 63 63 62 62 61 60 60 59 59 58 58 58 58 58 58 58 58 58 58 58 58 57 57 57 56 56 56 56 56 56 57 58 60 62 63 63 64 64 64 65 66 68 69
63 62 61 61 62 61 62 62 62 62 62 62 61 61 61 57 57 59 61 60 60 59 60 60 61 61 63 64 63 63 63 63 63 64 65 65 65 64 64 64 64 64 64 63 62 61 60 59 60 59 59 58 58 58 58 58 59 58 59 58 59 58 58 57 57 56 56 55 55 56 56 56 57 57 59 61 63 63 62 63 64 65 66 67 68
63 62 62 62 62 61 62 62 62 62 63 63 63 62 61 62 62 62 63 61 60 60 60 60 60 62 62 60 60 61 60 60 61 64 65 65 65 65 65 64 64 64 63 63 62 61 60 59 59 59 59 59 58 58 58 58 58 58 58 59 59 58 58 58 57 56 55 55 55 55 56 56 57 57 59 60 62 62 63 63 63 63 65 67 67
62 62 62 63 63 62 62 62 63 63 64 64 63 62 61 62 62 62 61 62 63 61 61 61 61 61 61 61 60 61 63 63 63 65 66 66 66 65 65 64 64 63 62 61 61 61 60 60 59 58 60 62 60 59 58 58 58 57 58 58 59 58 58 58 57 55 55 55 55 55 56 56 56 56 57 59 60 61 62 63 63 63 64 65 68
63 63 62 64 64 63 63 64 63 63 63 63 63 62 61 62 62 63 63 63 62 64 63 62 62 61 59 60 62 63 60 63 65 66 66 66 66 66 65 64 63 62 62 61 61 61 60 59 61 64 61 60 60 59 58 57 57 58 58 58 58 58 58 57 56 54 54 54 54 54 55 54 55 55 56 57 59 60 61 62 61 62 63 64 65
62 62 61 63 64 64 64 64 64 64 63 63 63 62 62 63 63 63 63 63 63 63 63 62 60 59 59 59 58 59 61 64 64 61 62 65 65 64 64 63 63 62 62 62 61 60 59 59 59 61 62 62 63 61 60 59 59 58 57 57 57 58 57 56 55 54 54 53 53 54 54 54 55 55 55 56 58 58 59 62 63 63 62 62 62
61 61 61 64 65 63 63 64 64 63 64 63 63 63 63 63 63 63 63 64 64 64 63 62 61 61 61 59 59 60 63 64 60 60 61 61 63 63 63 63 63 62 61 61 60 60 59 59 59 60 60 60 61 61 60 60 59 58 58 57 57 57 57 57 56 54 53 53 53 54 54 54 54 55 55 56 56 57 58 60 62 62 62 62 62
63 62 64 65 64 63 63 63 63 63 63 63 63 64 63 63 63 63 63 64 64 63 63 63 62 62 62 61 61 60 60 61 60 59 59 60 60 61 61 62 62 62 61 61 61 60 59 59 60 61 61 62 63 61 60 61 59 58 57 57 57 57 57 56 55 56 54 55 55 55 55 55 55 55 56 56 57 57 58 59 60 62 62 62 62
65 66 66 66 65 63 63 63 63 63 63 64 64 63 63 63 62 63 63 64 63 63 63 61 61 60 60 59 61 62 61 61 59 58 58 58 59 61 61 61 61 61 61 61 61 60 59 60 60 59 59 61 61 60 60 59 60 61 61 60 60 59 56 55 54 54 56 56 56 56 56 57 56 56 57 57 57 57 57 57 59 61 62 62 63
66 66 65 64 65 64 64 63 63 63 64 63 64 63 63 63 63 63 63 62 62 62 62 62 61 61 62 63 62 63 63 60 58 57 56 56 57 60 60 61 61 61 62 62 62 61 60 61 59 59 59 59 59 60 59 59 60 60 59 59 60 59 57 55 54 54 56 56 57 57 57 58 58 58 58 57 57 56 57 57 58 60 62 64 64
65 66 65 65 65 64 64 63 63 63 63 63 63 63 63 63 63 63 64 64 64 63 61 61 60 60 61 62 61 60 61 58 56 56 55 55 57 60 60 60 60 60 61 62 62 61 61 60 59 59 59 59 58 57 58 59 58 58 59 59 59 58 56 55 54 55 57 58 58 58 57 57 56 57 58 58 58 57 57 58 59 61 61 62 62
62 62 64 65 65 65 64 63 63 63 62 62 62 62 63 63 63 65 64 63 62 62 61 60 60 59 59 61 61 59 60 57 55 54 54 54 56 59 59 60 60 61 62 62 62 61 61 61 60 60 59 58 58 56 56 56 58 58 58 57 56 56 56 56 56 55 55 54 53 53 54 54 55 54 54 54 57 57 57 57 58 61 62 61 62
61 62 63 65 65 65 64 63 63 62 62 61 62 62 63 64 64 66 63 62 61 61 60 59 59 60 60 60 60 58 58 58 55 53 53 54 57 59 59 60 59 60 61 62 62 62 62 65 64 62 60 59 57 55 55 56 57 57 55 55 56 56 56 57 57 57 55 54 54 54 54 55 55 55 55 55 55 55 57 56 56 58 59 61 61
60 61 62 64 65 65 64 63 62 62 61 61 61 61 61 63 64 65 62 62 61 61 61 59 58 59 59 59 61 58 59 59 55 54 54 54 57 59 60 60 59 60 60 61 61 61 61 63 63 61 61 59 56 53 52 52 54 54 55 56 56 56 56 56 56 56 56 56 56 56 57 56 58 59 60 57 56 56 56 56 56 56 56 60 62
60 61 63 64 65 65 64 63 62 61 61 61 61 61 62 63 62 63 62 61 60 60 61 58 58 59 60 59 60 60 61 61 61 56 54 53 54 58 59 59 60 60 60 61 61 60 60 60 60 58 56 55 52 50 48 48 52 54 55 56 56 55 56 55 56 56 57 57 56 57 57 58 58 59 58 59 60 59 57 56 56 56 56 58 62
62 63 64 64 64 64 64 63 62 61 62 62 61 63 62 61 62 61 60 60 60 61 61 60 60 59 60 60 60 61 61 61 61 55 53 53 54 56 59 59 59 60 59 59 58 58 58 58 58 58 53 51 50 47 46 47 48 54 57 55 55 54 52 54 57 55 57 57 57 57 57 58 58 58 58 58 59 58 57 56 57 56 56 57 61
64 63 63 63 63 64 63 63 62 62 63 63 62 62 64 63 62 62 62 61 61 60 60 60 60 59 59 61 60 60 61 62 61 59 53 52 51 53 58 58 58 57 58 57 58 58 58 58 59 58 51 49 48 46 45 47 50 57 55 49 49 51 54 57 57 57 56 56 56 56 56 57 57 57 58 57 58 60 58 57 56 56 56 57 60
64 63 63 63 63 63 63 64 62 63 64 63 63 63 62 62 62 61 60 60 61 61 60 61 61 60 60 58 59 60 59 60 61 60 54 50 50 52 51 53 53 55 56 57 57 57 58 58 59 59 51 47 46 45 45 49 53 52 48 49 50 52 54 56 56 55 55 56 55 55 55 56 56 57 58 58 58 59 58 58 57 57 57 57 59
64 65 67 67 66 65 65 65 65 64 64 64 63 62 62 62 62 60 59 60 60 60 60 60 61 59 59 59 59 60 60 60 60 59 56 52 50 48 48 49 50 53 56 55 55 56 57 58 58 50 46 45 45 46 47 52 53 49 49 50 51 53 55 55 54 54 55 55 54 55 55 56 56 57 58 59 59 59 60 58 58 57 57 57 59
63 63 63 63 63 63 63 63 63 63 63 63 62 61 61 61 60 60 59 59 60 60 60 59 60 58 59 58 58 59 60 60 59 57 57 54 51 49 49 50 50 50 53 54 57 58 56 50 47 48 48 49 49 49 51 54 52 51 50 51 53 54 54 54 54 54 53 54 54 55 55 56 56 57 58 59 59 59 60 62 59 58 57 59 62
65 64 62 61 60 60 61 62 63 63 62 62 62 61 62 63 62 61 61 61 60 60 59 60 59 60 59 59 58 59 59 58 55 54 55 54 52 50 50 50 50 51 52 54 52 52 51 50 51 52 55 55 58 59 58 56 54 54 53 53 53 53 53 53 53 53 53 54 54 54 55 56 56 57 59 59 58 58 59 59 62 60 60 60 61
65 64 63 63 61 59 60 62 64 64 60 60 61 60 60 57 57 60 60 60 60 59 58 60 58 57 58 58 58 59 58 54 51 51 52 52 50 50 50 51 51 51 52 53 52 52 53 54 55 54 54 53 54 54 54 55 55 54 54 54 54 53 53 53 53 52 53 53 54 54 55 56 57 57 57 58 57 57 59 59 58 61 61 62 62
65 63 63 63 62 62 60 64 63 61 60 60 60 60 60 59 59 57 56 57 57 57 57 58 57 56 57 58 57 58 56 52 49 47 48 50 50 48 49 50 48 47 48 49 48 50 52 55 53 55 55 52 52 51 52 52 54 54 53 53 54 54 53 52 51 52 53 54 54 55 55 55 55 55 57 57 58 58 58 58 57 57 59 62 61
64 64 63 61 61 63 62 63 60 59 57 52 50 50 51 56 54 52 52 52 54 55 56 56 54 55 56 53 53 56 52 50 48 46 47 45 46 48 49 49 48 47 49 47 48 51 54 53 52 50 50 51 50 49 49 49 51 51 50 50 53 51 51 51 50 50 52 53 53 53 54 54 54 55 56 56 57 58 58 57 57 57 57 58 58
63 62 62 61 61 61 58 55 56 59 56 53 51 50 49 43 47 53 51 49 47 46 50 52 53 53 48 48 50 49 49 48 44 40 39 39 39 40 41 41 40 43 44 45 47 50 51 50 49 49 49 48 48 48 48 47 48 47 48 49 51 50 50 50 50 50 51 52 52 52 53 53 53 54 54 55 56 57 57 56 56 57 56 56 55
62 61 60 59 59 59 56 56 59 59 57 54 53 52 50 49 42 41 46 46 43 40 40 42 46 49 50 47 47 46 46 43 40 39 39 38 38 38 38 39 40 40 41 45 52 50 50 49 48 48 48 47 47 47 47 46 46 46 45 47 49 48 48 49 48 50 51 51 51 51 52 53 52 53 53 54 55 56 57 58 58 56 56 56 55
62 60 56 59 62 61 58 58 59 59 59 56 53 53 51 50 50 43 40 42 41 40 39 40 40 42 46 49 47 49 45 41 40 39 39 39 38 38 38 39 39 39 42 46 49 48 47 46 46 45 45 44 44 46 44 43 44 44 43 44 45 46 46 47 48 49 50 50 50 50 51 52 52 52 53 54 54 55 55 56 57 56 55 55 55
59 60 62 62 60 63 62 60 60 59 58 59 56 54 52 52 51 50 49 43 40 39 39 40 40 40 40 40 41 44 44 41 40 39 39 39 39 38 38 39 38 37 44 46 46 46 45 45 44 44 42 42 41 42 42 41 42 42 42 43 42 44 44 45 46 48 49 49 50 50 50 51 52 52 52 53 53 54 54 55 56 57 56 54 54
61 62 61 62 62 61 61 61 59 59 60 60 59 57 56 55 52 51 50 50 50 47 43 40 38 40 40 39 40 40 40 40 40 39 39 40 40 40 39 44 41 40 44 46 44 44 44 44 44 44 42 43 41 41 42 42 42 41 42 42 41 42 42 43 43 46 47 48 48 49 49 50 51 51 52 52 53 53 54 54 55 55 56 56 55
62 61 60 65 61 60 59 59 59 60 60 60 60 61 60 58 55 53 52 52 52 51 49 50 45 39 45 44 42 40 39 39 40 39 39 39 40 38 43 50 46 45 46 46 46 44 44 44 43 44 43 42 43 44 42 42 42 42 41 41 40 40 40 40 41 42 44 45 46 47 48 49 50 50 51 51 52 52 52 53 54 55 55 56 56
61 62 62 59 60 61 62 60 60 60 59 60 60 60 61 60 58 56 54 55 54 53 52 50 50 49 43 39 39 39 39 39 39 39 39 39 40 44 47 46 45 45 46 45 45 45 45 45 45 44 44 44 44 44 42 42 43 42 40 40 40 39 38 39 40 41 42 42 43 45 45 47 48 49 50 51 51 51 52 52 53 54 54 54 56
60 60 60 60 61 61 61 61 60 60 60 59 58 57 57 57 59 58 57 57 56 55 53 52 51 51 49 51 49 41 37 39 40 39 39 40 41 46 46 45 45 44 46 45 46 46 44 43 43 42 42 42 42 41 42 40 40 41 42 41 38 38 39 39 39 42 40 41 40 41 42 42 44 46 48 49 50 51 51 52 52 53 53 53 53
61 60 60 61 61 61 60 58 58 59 59 58 58 58 56 55 56 56 55 55 56 55 53 52 52 50 51 51 50 49 52 44 41 44 46 45 45 45 45 46 45 44 44 44 44 45 42 41 42 41 41 41 41 41 39 38 39 38 38 38 37 38 41 41 42 39 40 39 40 40 41 41 41 42 44 46 49 50 50 50 50 51 51 52 52
57 57 58 60 61 60 60 59 57 58 58 57 56 56 55 54 54 54 52 52 53 54 52 49 48 48 47 48 47 47 48 50 48 47 47 46 46 45 44 44 44 44 43 44 45 45 42 42 43 42 42 41 42 40 40 39 38 37 35 37 33 34 36 36 37 37 38 38 39 40 41 41 41 41 42 43 46 48 49 49 49 50 50 49 50
59 58 56 58 60 59 60 61 58 58 58 56 55 55 55 55 53 52 51 50 49 49 48 48 47 47 47 46 46 44 47 48 47 46 46 44 44 44 44 44 44 43 43 42 43 43 43 42 42 41 40 40 39 39 38 35 36 34 33 37 33 32 33 34 35 37 37 38 39 40 40 40 41 40 40 42 44 46 46 46 47 48 49 49 49
59 59 60 57 58 59 60 59 58 57 57 56 56 55 54 53 52 53 51 50 50 51 49 47 46 46 46 45 43 42 45 47 46 48 47 45 44 43 42 42 43 41 42 43 42 43 42 43 42 41 40 39 39 39 36 34 32 31 33 35 32 32 31 33 35 36 37 38 38 39 40 41 40 38 39 41 42 43 44 45 45 45 46 47 47
58 57 57 57 58 59 58 57 57 58 57 56 53 53 54 54 53 52 53 51 53 52 48 48 47 47 44 42 40 41 44 47 46 48 46 45 45 44 44 41 40 40 41 40 40 42 42 44 41 40 40 40 38 38 34 31 31 28 29 32 31 30 30 32 35 36 37 37 37 39 39 41 40 38 40 42 38 40 41 42 43 43 44 44 45
59 58 58 58 57 57 56 56 56 55 55 54 55 58 57 54 54 54 53 53 54 53 49 47 47 47 45 43 44 43 44 45 47 46 45 44 43 45 43 41 41 41 40 41 40 41 42 42 40 39 39 39 38 35 31 30 29 27 27 30 32 30 29 32 33 35 36 36 37 38 39 40 40 36 38 41 38 39 39 40 42 41 41 42 43
57 57 58 57 57 56 56 55 55 55 54 56 55 54 55 53 53 52 52 52 52 52 48 47 47 46 46 43 43 43 44 45 44 43 44 45 43 44 42 40 41 42 42 42 40 40 41 40 40 39 37 37 37 34 32 29 28 26 26 26 31 31 28 30 32 33 35 35 36 37 37 39 41 36 37 40 38 39 39 39 41 40 38 39 40
56 55 55 55 55 55 54 54 54 54 55 55 53 53 53 51 52 52 51 51 53 48 47 48 48 47 46 44 45 45 45 42 43 44 45 45 45 44 42 42 42 43 42 42 40 38 39 38 39 39 37 35 35 33 31 31 29 26 25 26 26 26 26 27 29 33 36 34 34 35 37 38 39 35 36 37 40 39 38 38 39 42 38 38 38
55 55 55 54 55 55 54 53 55 53 53 52 52 51 51 51 51 51 51 48 47 48 48 47 46 46 46 44 45 46 44 42 43 43 44 44 43 43 44 42 42 40 40 41 39 38 39 38 38 39 38 35 33 30 29 30 30 30 28 28 28 28 28 29 31 34 34 33 33 34 36 38 40 37 39 38 38 39 38 38 39 41 38 38 38
55 55 55 55 54 54 54 54 54 53 51 51 51 50 50 50 50 51 50 47 46 48 46 46 44 43 44 44 44 44 45 44 42 42 42 42 42 42 42 42 40 38 37 37 40 39 39 39 38 38 38 34 32 30 29 28 28 28 31 29 29 30 30 31 32 33 32 32 34 33 35 38 41 38 38 39 39 38 38 37 39 39 37 38 37
54 55 54 54 53 54 54 53 53 53 51 51 51 50 48 48 49 48 47 47 46 45 44 45 45 43 44 43 45 44 45 44 43 44 42 42 42 39 39 42 42 39 38 37 36 37 37 38 39 39 38 35 33 30 29 28 28 28 27 27 29 31 31 33 31 31 30 31 32 34 35 37 38 39 37 38 37 37 36 36 38 38 37 38 38
53 51 53 52 52 51 52 52 50 47 47 47 48 49 48 47 46 46 46 45 44 45 44 44 43 44 44 43 44 44 44 46 40 40 42 42 40 40 38 38 39 39 39 37 37 38 37 38 40 38 36 32 30 30 31 32 29 28 28 27 30 31 31 32 31 30 33 32 31 33 35 38 37 37 37 37 38 36 35 36 38 37 35 37 37
50 50 48 49 50 48 49 49 48 47 48 47 47 46 47 47 46 45 44 44 44 44 43 44 44 42 41 40 44 43 40 41 41 42 40 39 37 35 36 39 39 39 38 38 39 39 36 36 38 38 33 31 31 31 32 33 32 30 28 28 31 31 31 31 32 31 31 30 31 33 36 38 36 33 33 34 37 34 34 35 38 37 35 36 37
47 47 49 49 49 48 48 47 47 46 46 46 45 45 46 45 44 45 45 43 43 42 43 41 39 39 39 40 44 40 43 40 40 40 40 39 38 38 37 36 37 38 37 36 34 36 38 38 37 36 33 34 33 33 32 32 31 29 30 31 31 31 31 31 29 29 31 33 32 35 37 35 35 33 33 33 36 33 36 36 37 35 34 35 37